This is the latest recevied weather packets stored in our database for station/object KA9CBS. If no packets are shown the sender has not sent any weather packets the latest 10 day(s).
| Time | Temp. | Humidity | Pressure | Rain* | Wind** | Luminosity | Snow |
|---|---|---|---|---|---|---|---|
| 1787858536 | 28.33° C | 58% | 1018.2 hPa | 0 mm | - | 200 W/m² | - |
| 1787858235 | 28.33° C | 60% | 1018.2 hPa | 0 mm | - | 694 W/m² | - |
| 1787857932 | 27.78° C | 59% | 1018.1 hPa | 0 mm | - | 688 W/m² | - |
| 1787857627 | 28.33° C | 58% | 1018.2 hPa | 0 mm | - | 677 W/m² | - |
| 1787857327 | 28.33° C | 59% | 1018 hPa | 0 mm | - | 189 W/m² | - |
| 1787857026 | 28.33° C | 58% | 1018 hPa | 0 mm | - | 561 W/m² | - |
| 1787856726 | 27.78° C | 58% | 1018.1 hPa | 0 mm | - | 646 W/m² | - |
| 1787856415 | 27.78° C | 58% | 1018.6 hPa | 0 mm | - | 708 W/m² | - |
| 1787856110 | 27.78° C | 60% | 1018.3 hPa | 0 mm | - | 717 W/m² | - |
| 1787855804 | 28.33° C | 59% | 1018.2 hPa | 0 mm | - | 169 W/m² | - |
| 1787855500 | 28.33° C | 61% | 1018.4 hPa | 0 mm | - | 705 W/m² | - |
| 1787855196 | 28.33° C | 61% | 1018.4 hPa | 0 mm | - | 656 W/m² | - |
| 1787854891 | 27.78° C | 63% | 1018.3 hPa | 0 mm | - | 642 W/m² | - |
| 1787854591 | 27.78° C | 61% | 1018.3 hPa | 0 mm | - | 149 W/m² | - |
| 1787854285 | 28.33° C | 64% | 1018.4 hPa | 0 mm | - | 207 W/m² | - |
| 1787853981 | 27.78° C | 63% | 1018.4 hPa | 0 mm | - | 688 W/m² | - |
| 1787853680 | 27.22° C | 64% | 1018.5 hPa | 0 mm | - | 646 W/m² | - |
| 1787853374 | 27.78° C | 65% | 1018.3 hPa | 0 mm | - | 185 W/m² | - |
| 1787853074 | 27.22° C | 65% | 1018.3 hPa | 0 mm | - | 692 W/m² | - |
| 1787852769 | 27.22° C | 66% | 1018.4 hPa | 0 mm | - | 134 W/m² | - |
| 1787852468 | 28.33° C | 62% | 1018.6 hPa | 0 mm | - | 783 W/m² | - |
| 1787852168 | 27.78° C | 63% | 1018.4 hPa | 0 mm | - | 732 W/m² | - |
| 1787851862 | 27.78° C | 66% | 1018.5 hPa | 0 mm | - | 733 W/m² | - |
| 1787851561 | 27.78° C | 63% | 1018.4 hPa | 0 mm | - | 701 W/m² | - |
| 1787851256 | 27.22° C | 64% | 1018.4 hPa | 0 mm | - | 709 W/m² | - |
* Rain latest hour (hover to see other rain measurements)
** Current wind speed in m/s (hover to see current wind gust speed)